Weather in Ozerny

Russia / Republic of Mordovia     54°13′54″N   45°17′11″E
temp.,
°C
wind,
m/s
gust,
m/s
humid.,
%
clouds,
%
prec.,
mm/h
press.,
hPa
HPBL,
m
28 july, wed
wed2800:00+16wnw11715 0.0 101711
03:00+15nw12746 0.0 101711
06:00+17nw237553 0.1 1017119
09:00+22nne23530 0.2 1017655
12:00+25nnw33450 0.0 10161730
15:00+26nw443827 0.0 10152203
18:00+25nne1149100 0.0 101444
21:00+19ese3660100 0.0 101483
29 july, thu
thu2900:00+18s3563100 0.0 1014110
03:00+17s3781100 0.6 1012137
06:00+17sse3593100 1.1 1012158
09:00+16se41191100 2.5 1010361
12:00+23ssw8105899 0.0 10071123
15:00+25sw61062100 0.7 10051361
18:00+22wnw6128020 2.1 1005671
21:00+18wnw24936 2.1 100676
30 july, fri
fri3000:00+17w349529 0.0 100783
03:00+16w3595100 0.0 1007106
06:00+18sw26898 0.0 1007155
09:00+23wsw466477 0.0 1007492
12:00+29wsw584459 0.0 10072120
15:00+30wsw363887 0.0 10052569
18:00+22n467999 1.8 1006205
21:00+19s3597100 6.1 1006211
31 july, sat
sat3100:00+18sse119390 0.7 100617
03:00+17ssw229549 0.7 100638
06:00+18w249536 0.0 1006175
09:00+23wnw457414 0.0 1006800
12:00+25wnw565777 0.3 10071386
15:00+28w684191 0.4 10072393
18:00+25wsw375156 0.0 1007268
21:00+21wsw226280 0.0 100923
1 august, sun
sun100:00+20sw336233 0.0 100943
03:00+18wsw2266100 0.0 101023
06:00+19wsw23665 0.0 1011107
09:00+24wsw34497 0.0 1011556
12:00+28wsw464012 0.0 10111766
15:00+29w57375 0.0 10101917
18:00+28sw24480 0.0 1009131
21:00+22s46500 0.0 100976